Time,TemperatureF,DewpointF,PressureIn,WindDirection,WindDirectionDegrees,WindSpeedMPH,WindSpeedGustMPH,Humidity,HourlyPrecipIn,Conditions,Clouds,dailyrainin,SoftwareType,DateUTC
2013-02-06 00:00:00,29.8,22.1,29.99,WSW,248,3.1,3.1,73,0.00,,,0.00,WUHU216HW,2013-02-06 05:00:00,
2013-02-06 00:05:00,29.8,22.1,30.00,WNW,293,0.0,3.1,73,0.00,,,0.00,WUHU216HW,2013-02-06 05:05:00,
2013-02-06 00:10:00,30.2,22.8,30.00,West,270,0.0,0.0,74,0.00,,,0.00,WUHU216HW,2013-02-06 05:10:00,
2013-02-06 00:15:00,30.0,22.6,30.00,West,270,0.0,0.0,74,0.00,,,0.00,WUHU216HW,2013-02-06 05:15:00,
2013-02-06 00:20:00,30.0,22.8,30.01,West,270,0.0,2.4,74,0.00,,,0.00,WUHU216HW,2013-02-06 05:20:00,
2013-02-06 00:25:00,30.3,23.0,30.01,West,270,0.0,3.3,74,0.00,,,0.00,WUHU216HW,2013-02-06 05:25:00,
2013-02-06 00:30:00,30.3,23.0,30.01,NW,315,0.0,3.3,74,0.00,,,0.00,WUHU216HW,2013-02-06 05:30:00,
2013-02-06 00:35:00,30.3,23.0,30.01,West,270,0.0,3.1,74,0.00,,,0.00,WUHU216HW,2013-02-06 05:35:00,
2013-02-06 00:40:00,30.3,23.0,30.01,WNW,293,0.0,4.4,74,0.00,,,0.00,WUHU216HW,2013-02-06 05:40:00,
2013-02-06 00:45:00,30.3,23.0,30.01,WSW,248,0.0,4.4,74,0.00,,,0.00,WUHU216HW,2013-02-06 05:45:00,
2013-02-06 00:50:00,30.3,23.0,30.01,West,270,0.0,3.8,74,0.00,,,0.00,WUHU216HW,2013-02-06 05:50:00,
2013-02-06 00:55:00,30.3,23.3,30.02,West,270,2.0,3.1,75,0.00,,,0.00,WUHU216HW,2013-02-06 05:55:00,
2013-02-06 01:00:00,30.5,23.5,30.02,WNW,293,0.0,2.0,75,0.00,,,0.00,WUHU216HW,2013-02-06 06:00:00,
2013-02-06 01:05:00,30.5,23.5,30.02,WNW,293,0.0,0.0,75,0.00,,,0.00,WUHU216HW,2013-02-06 06:05:00,
2013-02-06 01:10:00,30.5,23.5,30.02,West,270,0.0,0.0,75,0.00,,,0.00,WUHU216HW,2013-02-06 06:10:00,
2013-02-06 01:15:00,30.5,23.5,30.02,NNW,338,3.3,3.8,75,0.00,,,0.00,WUHU216HW,2013-02-06 06:15:00,
2013-02-06 01:20:00,30.5,23.5,30.02,WSW,248,0.0,3.8,75,0.00,,,0.00,WUHU216HW,2013-02-06 06:20:00,
2013-02-06 01:25:00,30.5,23.5,30.02,NW,315,0.0,0.0,75,0.00,,,0.00,WUHU216HW,2013-02-06 06:25:00,
2013-02-06 01:30:00,30.5,23.5,30.02,WNW,293,4.9,4.9,75,0.00,,,0.00,WUHU216HW,2013-02-06 06:30:00,
2013-02-06 01:35:00,30.5,23.5,30.03,WNW,293,0.0,4.9,75,0.00,,,0.00,WUHU216HW,2013-02-06 06:35:00,
2013-02-06 01:40:00,30.5,23.5,30.03,WNW,293,0.0,3.8,75,0.00,,,0.00,WUHU216HW,2013-02-06 06:40:00,
2013-02-06 01:45:00,30.5,23.5,30.03,West,270,0.0,3.8,75,0.00,,,0.00,WUHU216HW,2013-02-06 06:45:00,
2013-02-06 01:50:00,30.5,23.5,30.04,WSW,248,0.0,0.0,75,0.00,,,0.00,WUHU216HW,2013-02-06 06:50:00,
2013-02-06 01:55:00,30.5,23.5,30.04,West,270,0.0,4.6,75,0.00,,,0.00,WUHU216HW,2013-02-06 06:55:00,
2013-02-06 02:00:00,30.5,23.5,30.04,West,270,0.0,4.6,75,0.00,,,0.00,WUHU216HW,2013-02-06 07:00:00,
2013-02-06 02:05:00,30.5,23.5,30.04,WSW,248,0.0,0.0,75,0.00,,,0.00,WUHU216HW,2013-02-06 07:05:00,
2013-02-06 02:10:00,30.5,23.5,30.04,WNW,293,0.0,0.0,75,0.00,,,0.00,WUHU216HW,2013-02-06 07:10:00,
2013-02-06 02:15:00,30.5,23.5,30.04,WNW,293,0.0,0.0,75,0.00,,,0.00,WUHU216HW,2013-02-06 07:15:00,
2013-02-06 02:20:00,30.5,23.2,30.04,WNW,293,0.0,0.0,74,0.00,,,0.00,WUHU216HW,2013-02-06 07:20:00,
2013-02-06 02:25:00,30.5,23.2,30.05,West,270,0.0,0.0,74,0.00,,,0.00,WUHU216HW,2013-02-06 07:25:00,
2013-02-06 02:30:00,30.5,23.2,30.05,West,270,0.0,0.0,74,0.00,,,0.00,WUHU216HW,2013-02-06 07:30:00,
2013-02-06 02:35:00,30.5,23.2,30.05,West,270,0.0,0.0,74,0.00,,,0.00,WUHU216HW,2013-02-06 07:35:00,
2013-02-06 02:40:00,30.5,23.2,30.06,West,270,0.0,0.0,74,0.00,,,0.00,WUHU216HW,2013-02-06 07:40:00,
2013-02-06 02:45:00,30.3,23.0,30.06,West,270,0.0,0.0,74,0.00,,,0.00,WUHU216HW,2013-02-06 07:45:00,
2013-02-06 02:50:00,30.5,23.2,30.06,WSW,248,0.0,0.0,74,0.00,,,0.00,WUHU216HW,2013-02-06 07:50:00,
2013-02-06 02:55:00,30.5,23.2,30.07,WSW,248,0.0,0.0,74,0.00,,,0.00,WUHU216HW,2013-02-06 07:55:00,
2013-02-06 03:00:00,30.5,23.2,30.06,WSW,248,0.0,0.0,74,0.00,,,0.00,WUHU216HW,2013-02-06 08:00:00,
2013-02-06 03:05:00,30.5,23.2,30.06,SW,225,0.0,0.0,74,0.00,,,0.00,WUHU216HW,2013-02-06 08:05:00,
2013-02-06 03:10:00,30.5,23.2,30.07,WSW,248,0.0,0.0,74,0.00,,,0.00,WUHU216HW,2013-02-06 08:10:00,
2013-02-06 03:15:00,30.5,23.5,30.07,West,270,0.0,0.0,75,0.00,,,0.00,WUHU216HW,2013-02-06 08:15:00,
2013-02-06 03:20:00,30.5,23.5,30.07,West,270,0.0,0.0,75,0.00,,,0.00,WUHU216HW,2013-02-06 08:20:00,
2013-02-06 03:25:00,30.5,23.5,30.07,West,270,0.0,0.0,75,0.00,,,0.00,WUHU216HW,2013-02-06 08:25:00,
2013-02-06 03:30:00,30.5,23.5,30.07,South,180,0.0,0.0,75,0.00,,,0.00,WUHU216HW,2013-02-06 08:30:00,
2013-02-06 03:35:00,30.5,23.5,30.07,WSW,248,0.0,0.0,75,0.00,,,0.00,WUHU216HW,2013-02-06 08:35:00,
2013-02-06 03:40:00,30.5,23.5,30.08,WSW,248,0.0,0.0,75,0.00,,,0.00,WUHU216HW,2013-02-06 08:40:00,
2013-02-06 03:45:00,30.5,23.5,30.07,West,270,0.0,0.0,75,0.00,,,0.00,WUHU216HW,2013-02-06 08:45:00,
2013-02-06 03:50:00,30.5,23.5,30.08,West,270,0.0,0.0,75,0.00,,,0.00,WUHU216HW,2013-02-06 08:50:00,
2013-02-06 03:55:00,30.5,23.5,30.08,SW,225,0.0,0.0,75,0.00,,,0.00,WUHU216HW,2013-02-06 08:55:00,
2013-02-06 04:00:00,30.5,23.5,30.08,SW,225,0.0,0.0,75,0.00,,,0.00,WUHU216HW,2013-02-06 09:00:00,
2013-02-06 04:05:00,30.5,23.5,30.08,WSW,248,0.0,0.0,75,0.00,,,0.00,WUHU216HW,2013-02-06 09:05:00,
2013-02-06 04:10:00,30.5,23.5,30.08,WSW,248,0.0,0.0,75,0.00,,,0.00,WUHU216HW,2013-02-06 09:10:00,
2013-02-06 04:15:00,30.7,23.7,30.08,WSW,248,0.0,0.0,75,0.00,,,0.00,WUHU216HW,2013-02-06 09:15:00,
2013-02-06 04:20:00,30.5,23.5,30.09,WSW,248,0.0,0.0,75,0.00,,,0.00,WUHU216HW,2013-02-06 09:20:00,
2013-02-06 04:25:00,30.7,23.7,30.09,SW,225,0.0,0.0,75,0.00,,,0.00,WUHU216HW,2013-02-06 09:25:00,
2013-02-06 04:30:00,30.5,23.5,30.10,WSW,248,0.0,0.0,75,0.00,,,0.00,WUHU216HW,2013-02-06 09:30:00,
2013-02-06 04:35:00,30.5,23.5,30.11,West,270,0.0,0.0,75,0.00,,,0.00,WUHU216HW,2013-02-06 09:35:00,
2013-02-06 04:40:00,30.5,23.5,30.11,WSW,248,0.0,0.0,75,0.00,,,0.00,WUHU216HW,2013-02-06 09:40:00,
2013-02-06 04:45:00,30.5,23.5,30.11,WSW,248,0.0,0.0,75,0.00,,,0.00,WUHU216HW,2013-02-06 09:45:00,
2013-02-06 04:50:00,30.5,23.5,30.11,West,270,0.0,0.0,75,0.00,,,0.00,WUHU216HW,2013-02-06 09:50:00,
2013-02-06 04:55:00,30.5,23.8,30.11,WNW,293,1.3,1.3,76,0.00,,,0.00,WUHU216HW,2013-02-06 09:55:00,
2013-02-06 05:00:00,30.5,23.8,30.11,West,270,0.0,1.3,76,0.00,,,0.00,WUHU216HW,2013-02-06 10:00:00,
2013-02-06 05:05:00,30.5,23.8,30.12,West,270,0.0,2.0,76,0.00,,,0.00,WUHU216HW,2013-02-06 10:05:00,
2013-02-06 05:10:00,30.5,23.8,30.12,West,270,0.0,2.0,76,0.00,,,0.00,WUHU216HW,2013-02-06 10:10:00,
2013-02-06 05:15:00,30.7,24.0,30.12,West,270,0.0,1.1,76,0.00,,,0.00,WUHU216HW,2013-02-06 10:15:00,
2013-02-06 05:20:00,30.7,24.0,30.12,WNW,293,1.3,2.9,76,0.00,,,0.00,WUHU216HW,2013-02-06 10:20:00,
2013-02-06 05:25:00,30.7,24.0,30.12,WSW,248,0.0,4.6,76,0.00,,,0.00,WUHU216HW,2013-02-06 10:25:00,
2013-02-06 05:30:00,30.7,24.2,30.12,WSW,248,0.0,4.6,76,0.00,,,0.00,WUHU216HW,2013-02-06 10:30:00,
2013-02-06 05:35:00,30.7,24.0,30.13,West,270,0.0,1.5,76,0.00,,,0.00,WUHU216HW,2013-02-06 10:35:00,
2013-02-06 05:40:00,30.9,23.7,30.13,NNW,338,0.0,0.0,75,0.00,,,0.00,WUHU216HW,2013-02-06 10:40:00,
2013-02-06 05:45:00,30.9,23.9,30.13,SW,225,0.0,3.5,75,0.00,,,0.00,WUHU216HW,2013-02-06 10:45:00,
2013-02-06 05:50:00,30.5,23.5,30.13,WNW,293,0.0,3.5,75,0.00,,,0.00,WUHU216HW,2013-02-06 10:50:00,
2013-02-06 05:55:00,30.7,23.5,30.13,WNW,293,0.0,0.0,75,0.00,,,0.00,WUHU216HW,2013-02-06 10:55:00,
2013-02-06 06:00:00,30.5,23.5,30.13,West,270,0.0,0.0,75,0.00,,,0.00,WUHU216HW,2013-02-06 11:00:00,
2013-02-06 06:05:00,30.5,23.5,30.13,West,270,0.0,0.0,75,0.00,,,0.00,WUHU216HW,2013-02-06 11:05:00,
2013-02-06 06:10:00,30.3,23.3,30.13,West,270,0.0,0.0,75,0.00,,,0.00,WUHU216HW,2013-02-06 11:10:00,
2013-02-06 06:15:00,30.5,23.5,30.13,WSW,248,0.0,3.3,75,0.00,,,0.00,WUHU216HW,2013-02-06 11:15:00,
2013-02-06 06:20:00,30.3,23.3,30.13,WNW,293,0.0,3.3,75,0.00,,,0.00,WUHU216HW,2013-02-06 11:20:00,
2013-02-06 06:25:00,30.3,23.3,30.15,WSW,248,0.0,0.0,75,0.00,,,0.00,WUHU216HW,2013-02-06 11:25:00,
2013-02-06 06:30:00,30.3,23.3,30.15,West,270,0.0,0.0,75,0.00,,,0.00,WUHU216HW,2013-02-06 11:30:00,
2013-02-06 06:35:00,30.0,23.0,30.15,WNW,293,0.0,0.0,75,0.00,,,0.00,WUHU216HW,2013-02-06 11:35:00,
2013-02-06 06:40:00,30.0,23.0,30.16,WNW,293,0.0,0.0,75,0.00,,,0.00,WUHU216HW,2013-02-06 11:40:00,
2013-02-06 06:45:00,29.8,22.8,30.16,West,270,0.0,3.8,75,0.00,,,0.00,WUHU216HW,2013-02-06 11:45:00,
2013-02-06 06:50:00,29.8,22.8,30.17,WNW,293,0.0,4.6,75,0.00,,,0.00,WUHU216HW,2013-02-06 11:50:00,
2013-02-06 06:55:00,29.8,22.8,30.17,West,270,0.0,4.6,75,0.00,,,0.00,WUHU216HW,2013-02-06 11:55:00,
2013-02-06 07:00:00,29.6,22.6,30.17,WNW,293,0.0,3.3,75,0.00,,,0.00,WUHU216HW,2013-02-06 12:00:00,
2013-02-06 07:05:00,29.6,22.3,30.18,NW,315,3.5,3.5,74,0.00,,,0.00,WUHU216HW,2013-02-06 12:05:00,
2013-02-06 07:10:00,29.3,22.0,30.18,WSW,248,0.0,3.5,74,0.00,,,0.00,WUHU216HW,2013-02-06 12:10:00,
2013-02-06 07:15:00,29.3,22.1,30.18,WNW,293,0.0,0.4,74,0.00,,,0.00,WUHU216HW,2013-02-06 12:15:00,
2013-02-06 07:20:00,29.3,22.0,30.18,WNW,293,0.0,1.3,74,0.00,,,0.00,WUHU216HW,2013-02-06 12:20:00,
2013-02-06 07:25:00,29.3,21.6,30.18,NNW,338,0.0,3.3,73,0.00,,,0.00,WUHU216HW,2013-02-06 12:25:00,
2013-02-06 07:30:00,29.1,21.5,30.18,WSW,248,0.0,3.3,73,0.00,,,0.00,WUHU216HW,2013-02-06 12:30:00,
2013-02-06 07:35:00,29.1,21.5,30.18,West,270,0.0,0.0,73,0.00,,,0.00,WUHU216HW,2013-02-06 12:35:00,
2013-02-06 07:40:00,28.9,21.3,30.18,WNW,293,0.0,0.0,73,0.00,,,0.00,WUHU216HW,2013-02-06 12:40:00,
2013-02-06 07:45:00,28.9,21.3,30.19,WNW,293,0.0,0.0,73,0.00,,,0.00,WUHU216HW,2013-02-06 12:45:00,
2013-02-06 07:50:00,28.9,21.3,30.19,WNW,293,0.0,0.0,73,0.00,,,0.00,WUHU216HW,2013-02-06 12:50:00,
2013-02-06 07:55:00,28.9,21.3,30.19,WNW,293,0.0,0.0,73,0.00,,,0.00,WUHU216HW,2013-02-06 12:55:00,
2013-02-06 08:00:00,28.9,21.3,30.20,WNW,293,0.0,0.0,73,0.00,,,0.00,WUHU216HW,2013-02-06 13:00:00,
2013-02-06 08:05:00,28.7,21.1,30.20,NNW,338,0.8,0.8,73,0.00,,,0.00,WUHU216HW,2013-02-06 13:05:00,
2013-02-06 08:10:00,28.9,21.0,30.20,NW,315,0.0,3.8,72,0.00,,,0.00,WUHU216HW,2013-02-06 13:10:00,
2013-02-06 08:15:00,28.9,21.0,30.20,WNW,293,0.0,3.8,72,0.00,,,0.00,WUHU216HW,2013-02-06 13:15:00,
2013-02-06 08:20:00,29.1,21.2,30.20,West,270,0.0,0.0,72,0.00,,,0.00,WUHU216HW,2013-02-06 13:20:00,
2013-02-06 08:25:00,29.1,21.2,30.20,WNW,293,0.0,0.0,72,0.00,,,0.00,WUHU216HW,2013-02-06 13:25:00,
2013-02-06 08:30:00,29.1,21.2,30.20,WNW,293,0.0,2.0,72,0.00,,,0.00,WUHU216HW,2013-02-06 13:30:00,
2013-02-06 08:35:00,29.3,21.0,30.21,West,270,0.0,2.2,71,0.00,,,0.00,WUHU216HW,2013-02-06 13:35:00,
2013-02-06 08:40:00,29.3,21.0,30.21,WNW,293,0.0,2.2,71,0.00,,,0.00,WUHU216HW,2013-02-06 13:40:00,
2013-02-06 08:45:00,29.3,21.0,30.22,West,270,0.0,0.0,71,0.00,,,0.00,WUHU216HW,2013-02-06 13:45:00,
2013-02-06 08:50:00,29.3,20.7,30.22,West,270,0.0,0.0,70,0.00,,,0.00,WUHU216HW,2013-02-06 13:50:00,
2013-02-06 08:55:00,29.4,20.9,30.22,WNW,293,0.0,0.0,70,0.00,,,0.00,WUHU216HW,2013-02-06 13:55:00,
2013-02-06 09:00:00,29.4,20.7,30.22,WNW,293,0.0,0.0,70,0.00,,,0.00,WUHU216HW,2013-02-06 14:00:00,
2013-02-06 09:05:00,29.4,20.9,30.22,West,270,0.0,0.0,70,0.00,,,0.00,WUHU216HW,2013-02-06 14:05:00,
2013-02-06 09:10:00,29.6,21.0,30.23,West,270,0.0,0.0,70,0.00,,,0.00,WUHU216HW,2013-02-06 14:10:00,
2013-02-06 09:15:00,29.6,20.7,30.23,West,270,0.0,0.0,69,0.00,,,0.00,WUHU216HW,2013-02-06 14:15:00,
2013-02-06 09:20:00,29.8,20.7,30.23,WNW,293,0.0,0.0,69,0.00,,,0.00,WUHU216HW,2013-02-06 14:20:00,
2013-02-06 09:25:00,29.8,20.8,30.22,West,270,0.0,0.0,69,0.00,,,0.00,WUHU216HW,2013-02-06 14:25:00,
2013-02-06 09:30:00,30.0,21.0,30.22,WNW,293,0.0,0.0,69,0.00,,,0.00,WUHU216HW,2013-02-06 14:30:00,
2013-02-06 09:35:00,30.3,21.3,30.23,SSW,203,0.0,0.0,69,0.00,,,0.00,WUHU216HW,2013-02-06 14:35:00,
2013-02-06 09:40:00,30.3,21.0,30.23,NW,315,0.0,0.0,68,0.00,,,0.00,WUHU216HW,2013-02-06 14:40:00,
2013-02-06 09:45:00,30.5,20.8,30.23,WSW,248,0.0,0.0,68,0.00,,,0.00,WUHU216HW,2013-02-06 14:45:00,
2013-02-06 09:50:00,30.9,21.2,30.23,West,270,0.0,0.0,67,0.00,,,0.00,WUHU216HW,2013-02-06 14:50:00,
2013-02-06 09:55:00,31.1,21.3,30.23,NW,315,0.0,0.0,67,0.00,,,0.00,WUHU216HW,2013-02-06 14:55:00,
2013-02-06 10:00:00,31.4,21.7,30.23,NW,315,0.0,0.0,67,0.00,,,0.00,WUHU216HW,2013-02-06 15:00:00,
2013-02-06 10:05:00,31.6,21.5,30.23,WNW,293,0.0,0.0,66,0.00,,,0.00,WUHU216HW,2013-02-06 15:05:00,
2013-02-06 10:10:00,31.8,21.3,30.23,West,270,0.0,2.6,65,0.00,,,0.00,WUHU216HW,2013-02-06 15:10:00,
2013-02-06 10:15:00,32.3,21.5,30.23,NW,315,0.0,2.6,64,0.00,,,0.00,WUHU216HW,2013-02-06 15:15:00,
2013-02-06 10:20:00,32.3,21.1,30.24,SW,225,0.0,0.0,63,0.00,,,0.00,WUHU216HW,2013-02-06 15:20:00,
2013-02-06 10:25:00,32.1,20.6,30.24,WNW,293,0.0,0.0,62,0.00,,,0.00,WUHU216HW,2013-02-06 15:25:00,
2013-02-06 10:30:00,32.1,20.6,30.24,NNW,338,0.0,0.0,62,0.00,,,0.00,WUHU216HW,2013-02-06 15:30:00,
2013-02-06 10:35:00,32.3,20.9,30.24,WNW,293,0.0,0.0,62,0.00,,,0.00,WUHU216HW,2013-02-06 15:35:00,
2013-02-06 10:40:00,32.7,21.1,30.24,West,270,2.6,2.6,61,0.00,,,0.00,WUHU216HW,2013-02-06 15:40:00,
2013-02-06 10:45:00,32.7,20.7,30.24,NNW,338,0.0,2.6,61,0.00,,,0.00,WUHU216HW,2013-02-06 15:45:00,
2013-02-06 10:50:00,32.9,20.5,30.25,WSW,248,0.0,0.0,60,0.00,,,0.00,WUHU216HW,2013-02-06 15:50:00,
2013-02-06 10:55:00,33.0,20.7,30.25,West,270,0.0,0.0,60,0.00,,,0.00,WUHU216HW,2013-02-06 15:55:00,
2013-02-06 11:00:00,33.2,20.8,30.25,West,270,0.0,3.8,60,0.00,,,0.00,WUHU216HW,2013-02-06 16:00:00,
2013-02-06 11:05:00,33.2,20.4,30.25,West,270,0.0,3.8,59,0.00,,,0.00,WUHU216HW,2013-02-06 16:05:00,
2013-02-06 11:10:00,33.4,20.1,30.25,NW,315,0.0,0.0,58,0.00,,,0.00,WUHU216HW,2013-02-06 16:10:00,
2013-02-06 11:15:00,33.6,20.3,30.25,NNW,338,0.0,0.8,58,0.00,,,0.00,WUHU216HW,2013-02-06 16:15:00,
2013-02-06 11:20:00,33.8,20.5,30.25,WNW,293,0.0,0.8,58,0.00,,,0.00,WUHU216HW,2013-02-06 16:20:00,
2013-02-06 11:25:00,33.8,20.0,30.25,WSW,248,0.0,0.0,57,0.00,,,0.00,WUHU216HW,2013-02-06 16:25:00,
2013-02-06 11:30:00,33.6,19.4,30.25,WSW,248,0.0,0.2,56,0.00,,,0.00,WUHU216HW,2013-02-06 16:30:00,
2013-02-06 11:35:00,33.9,19.8,30.25,WNW,293,0.0,0.2,56,0.00,,,0.00,WUHU216HW,2013-02-06 16:35:00,
2013-02-06 11:40:00,33.9,19.4,30.24,WNW,293,0.0,0.0,55,0.00,,,0.00,WUHU216HW,2013-02-06 16:40:00,
2013-02-06 11:45:00,34.1,19.5,30.24,NW,315,0.0,0.0,55,0.00,,,0.00,WUHU216HW,2013-02-06 16:45:00,
2013-02-06 11:50:00,34.5,19.9,30.24,North,0,0.0,0.0,55,0.00,,,0.00,WUHU216HW,2013-02-06 16:50:00,
2013-02-06 11:55:00,35.0,20.4,30.24,NNW,338,0.0,0.0,55,0.00,,,0.00,WUHU216HW,2013-02-06 16:55:00,
2013-02-06 12:00:00,35.2,20.6,30.24,NNW,338,0.0,0.0,55,0.00,,,0.00,WUHU216HW,2013-02-06 17:00:00,
2013-02-06 12:05:00,35.7,20.7,30.24,NNE,23,0.0,0.0,54,0.00,,,0.00,WUHU216HW,2013-02-06 17:05:00,
2013-02-06 12:10:00,35.9,20.9,30.25,WSW,248,0.0,0.0,54,0.00,,,0.00,WUHU216HW,2013-02-06 17:10:00,
2013-02-06 12:15:00,36.1,20.2,30.25,WNW,293,0.0,0.0,52,0.00,,,0.00,WUHU216HW,2013-02-06 17:15:00,
2013-02-06 12:20:00,36.3,19.9,30.25,WNW,293,1.7,1.7,51,0.00,,,0.00,WUHU216HW,2013-02-06 17:20:00,
2013-02-06 12:25:00,36.1,19.3,30.25,WSW,248,0.0,1.7,51,0.00,,,0.00,WUHU216HW,2013-02-06 17:25:00,
2013-02-06 12:30:00,35.9,19.1,30.25,ESE,113,0.0,1.1,50,0.00,,,0.00,WUHU216HW,2013-02-06 17:30:00,
2013-02-06 12:35:00,36.1,19.1,30.26,SSW,203,0.0,0.0,50,0.00,,,0.00,WUHU216HW,2013-02-06 17:35:00,
2013-02-06 12:40:00,36.3,19.5,30.26,South,180,0.0,0.0,50,0.00,,,0.00,WUHU216HW,2013-02-06 17:40:00,
2013-02-06 12:45:00,36.5,20.1,30.25,WNW,293,0.8,0.8,51,0.00,,,0.00,WUHU216HW,2013-02-06 17:45:00,
2013-02-06 12:50:00,36.6,19.8,30.25,West,270,0.0,0.8,50,0.00,,,0.00,WUHU216HW,2013-02-06 17:50:00,
2013-02-06 12:55:00,36.8,19.9,30.25,WNW,293,0.0,0.0,50,0.00,,,0.00,WUHU216HW,2013-02-06 17:55:00,
2013-02-06 13:00:00,36.6,19.3,30.25,WNW,293,0.0,1.5,49,0.00,,,0.00,WUHU216HW,2013-02-06 18:00:00,
2013-02-06 13:05:00,36.6,19.3,30.25,West,270,0.0,1.5,49,0.00,,,0.00,WUHU216HW,2013-02-06 18:05:00,
2013-02-06 13:10:00,36.5,18.6,30.25,WSW,248,0.0,0.0,48,0.00,,,0.00,WUHU216HW,2013-02-06 18:10:00,
2013-02-06 13:15:00,36.8,18.9,30.25,NW,315,0.0,0.0,48,0.00,,,0.00,WUHU216HW,2013-02-06 18:15:00,
2013-02-06 13:20:00,37.4,19.9,30.25,SSE,158,0.0,0.0,49,0.00,,,0.00,WUHU216HW,2013-02-06 18:20:00,
2013-02-06 13:25:00,38.3,20.7,30.25,West,270,0.0,0.0,49,0.00,,,0.00,WUHU216HW,2013-02-06 18:25:00,
2013-02-06 13:30:00,38.6,20.5,30.25,NNW,338,0.0,0.0,47,0.00,,,0.00,WUHU216HW,2013-02-06 18:30:00,
2013-02-06 13:35:00,38.8,19.6,30.25,WSW,248,2.6,2.6,46,0.00,,,0.00,WUHU216HW,2013-02-06 18:35:00,
2013-02-06 13:40:00,39.2,20.0,30.25,SW,225,0.0,2.6,46,0.00,,,0.00,WUHU216HW,2013-02-06 18:40:00,
2013-02-06 13:45:00,39.5,20.3,30.25,NNE,23,0.0,0.0,46,0.00,,,0.00,WUHU216HW,2013-02-06 18:45:00,
2013-02-06 13:50:00,40.1,20.8,30.25,WSW,248,0.0,0.0,46,0.00,,,0.00,WUHU216HW,2013-02-06 18:50:00,
2013-02-06 13:55:00,39.9,20.1,30.25,WNW,293,2.6,2.6,45,0.00,,,0.00,WUHU216HW,2013-02-06 18:55:00,
2013-02-06 14:00:00,39.3,18.6,30.25,WNW,293,0.0,2.6,43,0.00,,,0.00,WUHU216HW,2013-02-06 19:00:00,
2013-02-06 14:05:00,39.2,18.4,30.25,North,0,0.0,0.0,43,0.00,,,0.00,WUHU216HW,2013-02-06 19:05:00,
2013-02-06 14:10:00,39.2,18.4,30.25,WNW,293,0.0,0.0,43,0.00,,,0.00,WUHU216HW,2013-02-06 19:10:00,
2013-02-06 14:15:00,40.1,19.7,30.25,WNW,293,0.0,0.0,44,0.00,,,0.00,WUHU216HW,2013-02-06 19:15:00,
2013-02-06 14:20:00,41.9,20.8,30.25,West,270,0.0,0.0,43,0.00,,,0.00,WUHU216HW,2013-02-06 19:20:00,
2013-02-06 14:25:00,44.0,21.7,30.25,WSW,248,0.0,5.1,41,0.00,,,0.00,WUHU216HW,2013-02-06 19:25:00,
2013-02-06 14:30:00,45.5,22.5,30.25,West,270,0.0,5.1,40,0.00,,,0.00,WUHU216HW,2013-02-06 19:30:00,
2013-02-06 14:35:00,46.0,21.7,30.25,South,180,0.0,1.7,38,0.00,,,0.00,WUHU216HW,2013-02-06 19:35:00,
2013-02-06 14:40:00,46.5,21.5,30.25,South,180,3.8,3.8,37,0.00,,,0.00,WUHU216HW,2013-02-06 19:40:00,
2013-02-06 14:45:00,46.4,20.6,30.25,South,180,1.3,3.8,36,0.00,,,0.00,WUHU216HW,2013-02-06 19:45:00,
2013-02-06 14:50:00,46.0,20.3,30.25,SW,225,0.0,1.3,36,0.00,,,0.00,WUHU216HW,2013-02-06 19:50:00,
2013-02-06 14:55:00,46.5,20.1,30.25,SE,135,0.0,3.1,35,0.00,,,0.00,WUHU216HW,2013-02-06 19:55:00,
2013-02-06 15:00:00,47.4,21.6,30.25,SSW,203,0.0,3.1,36,0.00,,,0.00,WUHU216HW,2013-02-06 20:00:00,
2013-02-06 15:05:00,48.0,21.4,30.24,SSE,158,0.0,0.0,35,0.00,,,0.00,WUHU216HW,2013-02-06 20:05:00,
2013-02-06 15:10:00,48.3,21.7,30.25,West,270,0.0,0.0,35,0.00,,,0.00,WUHU216HW,2013-02-06 20:10:00,
2013-02-06 15:15:00,48.3,21.1,30.25,SSW,203,0.0,0.0,33,0.00,,,0.00,WUHU216HW,2013-02-06 20:15:00,
2013-02-06 15:20:00,48.5,20.6,30.25,WSW,248,0.0,0.0,33,0.00,,,0.00,WUHU216HW,2013-02-06 20:20:00,
2013-02-06 15:25:00,48.5,19.9,30.25,SSW,203,0.0,0.0,32,0.00,,,0.00,WUHU216HW,2013-02-06 20:25:00,
2013-02-06 15:30:00,48.7,20.0,30.26,SW,225,0.0,0.0,32,0.00,,,0.00,WUHU216HW,2013-02-06 20:30:00,
2013-02-06 15:35:00,48.5,19.9,30.26,SSE,158,0.0,0.0,32,0.00,,,0.00,WUHU216HW,2013-02-06 20:35:00,
2013-02-06 15:40:00,49.1,21.0,30.26,WSW,248,0.0,2.2,33,0.00,,,0.00,WUHU216HW,2013-02-06 20:40:00,
2013-02-06 15:45:00,49.4,21.3,30.27,WNW,293,0.0,2.2,33,0.00,,,0.00,WUHU216HW,2013-02-06 20:45:00,
2013-02-06 15:50:00,50.1,21.9,30.26,North,0,0.0,0.0,33,0.00,,,0.00,WUHU216HW,2013-02-06 20:50:00,
2013-02-06 15:55:00,50.5,22.4,30.26,South,180,0.0,0.0,32,0.00,,,0.00,WUHU216HW,2013-02-06 20:55:00,
2013-02-06 16:00:00,50.7,21.7,30.26,West,270,0.0,0.0,32,0.00,,,0.00,WUHU216HW,2013-02-06 21:00:00,
2013-02-06 16:05:00,50.7,21.0,30.26,SSW,203,0.0,0.0,31,0.00,,,0.00,WUHU216HW,2013-02-06 21:05:00,
2013-02-06 16:10:00,50.5,20.2,30.27,South,180,0.0,0.0,30,0.00,,,0.00,WUHU216HW,2013-02-06 21:10:00,
2013-02-06 16:15:00,50.3,20.0,30.26,South,180,0.0,0.0,30,0.00,,,0.00,WUHU216HW,2013-02-06 21:15:00,
2013-02-06 16:20:00,50.3,20.0,30.26,SSW,203,0.0,0.0,30,0.00,,,0.00,WUHU216HW,2013-02-06 21:20:00,
2013-02-06 16:25:00,50.1,20.0,30.25,SSW,203,0.0,0.0,30,0.00,,,0.00,WUHU216HW,2013-02-06 21:25:00,
2013-02-06 16:30:00,50.1,19.9,30.25,West,270,0.0,0.0,30,0.00,,,0.00,WUHU216HW,2013-02-06 21:30:00,
2013-02-06 16:35:00,49.4,19.3,30.25,SW,225,0.0,0.0,30,0.00,,,0.00,WUHU216HW,2013-02-06 21:35:00,
2013-02-06 16:40:00,48.2,7.8,30.25,WNW,293,0.0,0.0,19,0.00,,,0.00,WUHU216HW,2013-02-06 21:40:00,
2013-02-06 16:45:00,47.3,7.0,30.25,WSW,248,0.0,0.0,19,0.00,,,0.00,WUHU216HW,2013-02-06 21:45:00,
2013-02-06 16:50:00,46.5,6.4,30.25,WSW,248,0.0,0.0,19,0.00,,,0.00,WUHU216HW,2013-02-06 21:50:00,
2013-02-06 16:55:00,45.3,5.4,30.25,WNW,293,0.0,0.0,19,0.00,,,0.00,WUHU216HW,2013-02-06 21:55:00,
2013-02-06 17:00:00,43.5,3.9,30.26,West,270,0.0,0.0,19,0.00,,,0.00,WUHU216HW,2013-02-06 22:00:00,
2013-02-06 17:05:00,42.4,3.0,30.25,WNW,293,0.0,0.0,19,0.00,,,0.00,WUHU216HW,2013-02-06 22:05:00,
2013-02-06 17:10:00,41.3,2.1,30.25,SSW,203,0.0,0.0,19,0.00,,,0.00,WUHU216HW,2013-02-06 22:10:00,
2013-02-06 17:15:00,40.4,1.3,30.26,South,180,0.0,0.0,19,0.00,,,0.00,WUHU216HW,2013-02-06 22:15:00,
2013-02-06 17:20:00,39.9,3.8,30.26,South,180,0.0,0.0,22,0.00,,,0.00,WUHU216HW,2013-02-06 22:20:00,
2013-02-06 17:25:00,39.5,8.0,30.25,South,180,0.0,0.0,27,0.00,,,0.00,WUHU216HW,2013-02-06 22:25:00,
2013-02-06 17:30:00,38.8,10.7,30.25,South,180,0.0,0.0,30,0.00,,,0.00,WUHU216HW,2013-02-06 22:30:00,
2013-02-06 17:35:00,38.3,10.8,30.25,South,180,0.0,0.0,32,0.00,,,0.00,WUHU216HW,2013-02-06 22:35:00,
2013-02-06 17:40:00,37.9,11.0,30.25,South,180,0.0,0.0,33,0.00,,,0.00,WUHU216HW,2013-02-06 22:40:00,
2013-02-06 17:45:00,37.0,11.0,30.25,South,180,0.0,0.0,34,0.00,,,0.00,WUHU216HW,2013-02-06 22:45:00,
2013-02-06 17:50:00,36.5,11.2,30.25,South,180,0.0,0.0,35,0.00,,,0.00,WUHU216HW,2013-02-06 22:50:00,
2013-02-06 17:55:00,35.9,10.7,30.26,South,180,0.0,0.0,35,0.00,,,0.00,WUHU216HW,2013-02-06 22:55:00,
2013-02-06 18:00:00,35.4,10.2,30.26,South,180,0.0,0.0,35,0.00,,,0.00,WUHU216HW,2013-02-06 23:00:00,
2013-02-06 18:05:00,34.8,10.4,30.26,South,180,0.0,0.0,36,0.00,,,0.00,WUHU216HW,2013-02-06 23:05:00,
2013-02-06 18:10:00,34.5,10.7,30.26,South,180,0.0,0.0,37,0.00,,,0.00,WUHU216HW,2013-02-06 23:10:00,
2013-02-06 18:15:00,33.9,10.2,30.26,South,180,0.0,0.0,37,0.00,,,0.00,WUHU216HW,2013-02-06 23:15:00,
2013-02-06 18:20:00,33.4,10.4,30.27,South,180,0.0,0.0,38,0.00,,,0.00,WUHU216HW,2013-02-06 23:20:00,
2013-02-06 18:25:00,33.2,10.2,30.27,South,180,0.0,0.0,38,0.00,,,0.00,WUHU216HW,2013-02-06 23:25:00,
2013-02-06 18:30:00,32.9,10.5,30.27,South,180,0.0,0.0,39,0.00,,,0.00,WUHU216HW,2013-02-06 23:30:00,
2013-02-06 18:35:00,32.7,10.4,30.27,South,180,0.0,0.0,39,0.00,,,0.00,WUHU216HW,2013-02-06 23:35:00,
2013-02-06 18:40:00,32.3,10.0,30.27,South,180,0.0,0.0,39,0.00,,,0.00,WUHU216HW,2013-02-06 23:40:00,
2013-02-06 18:45:00,32.1,10.5,30.27,South,180,0.0,0.0,40,0.00,,,0.00,WUHU216HW,2013-02-06 23:45:00,
2013-02-06 18:50:00,32.0,10.4,30.27,South,180,0.0,0.0,40,0.00,,,0.00,WUHU216HW,2013-02-06 23:50:00,
2013-02-06 18:55:00,31.6,10.0,30.28,South,180,0.0,0.0,40,0.00,,,0.00,WUHU216HW,2013-02-06 23:55:00,
2013-02-06 19:00:00,31.4,10.4,30.28,South,180,0.0,0.0,41,0.00,,,0.00,WUHU216HW,2013-02-07 00:00:00,
2013-02-06 19:05:00,31.1,10.0,30.29,South,180,0.0,0.0,41,0.00,,,0.00,WUHU216HW,2013-02-07 00:05:00,
2013-02-06 19:10:00,30.9,9.9,30.29,South,180,0.0,0.0,41,0.00,,,0.00,WUHU216HW,2013-02-07 00:10:00,
2013-02-06 19:15:00,30.7,10.2,30.29,South,180,0.0,0.0,42,0.00,,,0.00,WUHU216HW,2013-02-07 00:15:00,
2013-02-06 19:20:00,30.3,9.9,30.29,South,180,0.0,0.0,42,0.00,,,0.00,WUHU216HW,2013-02-07 00:20:00,
2013-02-06 19:25:00,30.3,9.9,30.29,South,180,0.0,0.0,42,0.00,,,0.00,WUHU216HW,2013-02-07 00:25:00,
2013-02-06 19:30:00,29.8,9.4,30.29,South,180,0.0,0.0,42,0.00,,,0.00,WUHU216HW,2013-02-07 00:30:00,
2013-02-06 19:35:00,29.8,9.9,30.30,South,180,0.0,0.0,43,0.00,,,0.00,WUHU216HW,2013-02-07 00:35:00,
2013-02-06 19:40:00,29.6,9.8,30.30,South,180,0.0,0.0,43,0.00,,,0.00,WUHU216HW,2013-02-07 00:40:00,
2013-02-06 19:45:00,29.4,9.6,30.30,South,180,0.0,0.0,43,0.00,,,0.00,WUHU216HW,2013-02-07 00:45:00,
2013-02-06 19:50:00,29.3,9.9,30.29,South,180,0.0,0.0,44,0.00,,,0.00,WUHU216HW,2013-02-07 00:50:00,
2013-02-06 19:55:00,29.1,9.8,30.30,South,180,0.0,0.0,44,0.00,,,0.00,WUHU216HW,2013-02-07 00:55:00,
2013-02-06 20:00:00,28.7,9.5,30.29,South,180,0.0,0.0,44,0.00,,,0.00,WUHU216HW,2013-02-07 01:00:00,
2013-02-06 20:05:00,28.5,9.3,30.29,South,180,0.0,0.0,44,0.00,,,0.00,WUHU216HW,2013-02-07 01:05:00,
2013-02-06 20:10:00,28.5,9.8,30.29,East,90,0.0,0.0,45,0.00,,,0.00,WUHU216HW,2013-02-07 01:10:00,
2013-02-06 20:15:00,28.4,9.6,30.28,ENE,68,0.0,0.0,45,0.00,,,0.00,WUHU216HW,2013-02-07 01:15:00,
2013-02-06 20:20:00,28.0,9.3,30.28,ENE,68,0.0,0.0,45,0.00,,,0.00,WUHU216HW,2013-02-07 01:20:00,
2013-02-06 20:25:00,28.2,9.5,30.28,ENE,68,0.0,0.0,45,0.00,,,0.00,WUHU216HW,2013-02-07 01:25:00,
2013-02-06 20:30:00,28.0,9.8,30.29,ENE,68,0.0,0.0,46,0.00,,,0.00,WUHU216HW,2013-02-07 01:30:00,
2013-02-06 20:35:00,27.8,9.8,30.29,ENE,68,0.0,0.0,46,0.00,,,0.00,WUHU216HW,2013-02-07 01:35:00,
2013-02-06 20:40:00,27.8,9.6,30.29,ENE,68,0.0,0.0,46,0.00,,,0.00,WUHU216HW,2013-02-07 01:40:00,
2013-02-06 20:45:00,27.6,9.4,30.29,ENE,68,0.0,0.0,46,0.00,,,0.00,WUHU216HW,2013-02-07 01:45:00,
2013-02-06 20:50:00,27.5,9.3,30.28,ENE,68,0.0,0.0,46,0.00,,,0.00,WUHU216HW,2013-02-07 01:50:00,
2013-02-06 20:55:00,27.5,9.8,30.29,ENE,68,0.0,0.0,47,0.00,,,0.00,WUHU216HW,2013-02-07 01:55:00,
2013-02-06 20:59:00,27.3,9.6,30.28,NE,45,0.0,0.0,47,0.00,,,0.00,WUHU216HW,2013-02-07 01:59:00,
2013-02-06 21:04:00,27.3,9.6,30.28,NE,45,0.0,0.0,47,0.00,,,0.00,WUHU216HW,2013-02-07 02:04:00,
2013-02-06 21:09:00,27.1,9.4,30.28,NE,45,0.0,0.0,47,0.00,,,0.00,WUHU216HW,2013-02-07 02:09:00,
2013-02-06 21:14:00,26.9,9.7,30.28,NE,45,0.0,0.0,48,0.00,,,0.00,WUHU216HW,2013-02-07 02:14:00,
2013-02-06 21:19:00,26.9,9.7,30.28,NE,45,0.0,0.0,48,0.00,,,0.00,WUHU216HW,2013-02-07 02:19:00,
2013-02-06 21:24:00,26.9,9.7,30.28,NE,45,0.0,0.0,48,0.00,,,0.00,WUHU216HW,2013-02-07 02:24:00,
2013-02-06 21:29:00,26.7,9.5,30.28,NE,45,0.0,0.0,48,0.00,,,0.00,WUHU216HW,2013-02-07 02:29:00,
2013-02-06 21:34:00,26.7,9.5,30.28,NE,45,0.0,0.0,48,0.00,,,0.00,WUHU216HW,2013-02-07 02:34:00,
2013-02-06 21:39:00,26.6,9.5,30.27,NE,45,0.0,0.0,48,0.00,,,0.00,WUHU216HW,2013-02-07 02:39:00,
2013-02-06 21:44:00,26.6,9.4,30.27,NE,45,0.0,0.0,48,0.00,,,0.00,WUHU216HW,2013-02-07 02:44:00,
2013-02-06 21:49:00,26.4,9.2,30.27,NE,45,0.0,0.0,48,0.00,,,0.00,WUHU216HW,2013-02-07 02:49:00,
2013-02-06 21:54:00,26.2,9.5,30.27,NE,45,0.0,0.0,49,0.00,,,0.00,WUHU216HW,2013-02-07 02:54:00,
2013-02-06 21:59:00,26.2,9.5,30.26,NE,45,0.0,0.0,49,0.00,,,0.00,WUHU216HW,2013-02-07 02:59:00,
2013-02-06 22:04:00,26.2,9.5,30.26,NE,45,0.0,0.0,49,0.00,,,0.00,WUHU216HW,2013-02-07 03:04:00,
2013-02-06 22:09:00,26.0,9.4,30.26,NE,45,0.0,0.0,49,0.00,,,0.00,WUHU216HW,2013-02-07 03:09:00,
2013-02-06 22:14:00,25.8,9.2,30.26,NE,45,0.0,0.0,49,0.00,,,0.00,WUHU216HW,2013-02-07 03:14:00,
2013-02-06 22:19:00,25.8,9.2,30.26,ENE,68,0.0,0.0,49,0.00,,,0.00,WUHU216HW,2013-02-07 03:19:00,
2013-02-06 22:24:00,25.8,9.7,30.25,ENE,68,0.0,0.0,50,0.00,,,0.00,WUHU216HW,2013-02-07 03:24:00,
2013-02-06 22:29:00,25.7,9.5,30.25,ENE,68,0.0,0.0,50,0.00,,,0.00,WUHU216HW,2013-02-07 03:29:00,
2013-02-06 22:34:00,25.5,9.4,30.25,ENE,68,0.0,0.0,50,0.00,,,0.00,WUHU216HW,2013-02-07 03:34:00,
2013-02-06 22:40:00,25.3,9.2,30.25,ENE,68,0.0,0.0,50,0.00,,,0.00,WUHU216HW,2013-02-07 03:40:00,
2013-02-06 22:47:00,25.1,9.1,30.25,North,0,0.0,0.0,50,0.00,,,0.00,WUHU216HW,2013-02-07 03:47:00,
2013-02-06 22:52:00,25.1,9.1,30.26,NNE,23,0.0,0.0,50,0.00,,,0.00,WUHU216HW,2013-02-07 03:52:00,
2013-02-06 22:58:00,24.9,8.9,30.25,ENE,68,0.0,0.0,50,0.00,,,0.00,WUHU216HW,2013-02-07 03:58:00,
2013-02-06 23:03:00,24.9,8.9,30.25,East,90,0.0,0.0,50,0.00,,,0.00,WUHU216HW,2013-02-07 04:03:00,
2013-02-06 23:08:00,24.8,9.1,30.25,ENE,68,0.0,0.0,51,0.00,,,0.00,WUHU216HW,2013-02-07 04:08:00,
2013-02-06 23:13:00,24.6,9.0,30.24,ENE,68,0.0,0.0,51,0.00,,,0.00,WUHU216HW,2013-02-07 04:13:00,
2013-02-06 23:18:00,24.6,9.0,30.25,ENE,68,0.0,0.0,51,0.00,,,0.00,WUHU216HW,2013-02-07 04:18:00,
2013-02-06 23:24:00,24.4,8.8,30.24,ENE,68,0.0,0.0,51,0.00,,,0.00,WUHU216HW,2013-02-07 04:24:00,
2013-02-06 23:29:00,24.2,8.6,30.25,ENE,68,0.0,0.0,51,0.00,,,0.00,WUHU216HW,2013-02-07 04:29:00,
2013-02-06 23:34:00,24.2,8.6,30.25,ENE,68,0.0,0.0,51,0.00,,,0.00,WUHU216HW,2013-02-07 04:34:00,
2013-02-06 23:40:00,24.2,9.1,30.26,ENE,68,0.0,0.0,52,0.00,,,0.00,WUHU216HW,2013-02-07 04:40:00,
2013-02-06 23:45:00,24.2,9.1,30.26,ENE,68,0.0,0.0,52,0.00,,,0.00,WUHU216HW,2013-02-07 04:45:00,
2013-02-06 23:52:00,24.0,8.9,30.26,ENE,68,0.0,0.0,52,0.00,,,0.00,WUHU216HW,2013-02-07 04:52:00,
2013-02-06 23:58:00,24.0,8.9,30.26,ENE,68,0.0,0.0,52,0.00,,,0.00,WUHU216HW,2013-02-07 04:58:00,